CAPE
0 0 0 0 0 0 0 0 0 0 0 0 0 0 0 0 0 0 0 0 0 0 0 0 0 0 0 0 0 0 0 0 0 0 0 0 0 0 0 0 0 0 0 0 0
0 0 0 0 0 0 0 0 0 0 0 0 0 0 0 0 0 0 0 0 0 0 0 0 0 0 0 0 0 0 0 0 0 0 0 0 0 0 0 0 0 0 0 0 0
0 0 0 0 0 0 0 0 0 0 0 0 0 0 0 0 0 0 0 0 0 0 0 0 0 0 0 0 0 0 0 0 0 0 0 0 0 0 0 0 0 0 0 0 0
0 0 0 0 0 0 0 0 0 0 0 0 0 0 0 0 0 0 0 0 0 0 0 0 0 0 0 0 0 0 0 0 0 0 0 0 0 0 0 0 0 0 0 0 0
0 0 0 0 0 0 0 0 0 0 0 0 0 0 0 0 0 0 0 0 0 0 0 0 0 0 0 0 0 0 0 0 0 0 0 0 0 0 0 0 0 0 0 0 0
0 0 0 0 0 0 0 0 0 0 0 0 0 0 0 0 0 0 0 0 0 0 0 0 0 0 0 0 0 0 0 0 0 0 0 0 0 0 0 0 0 0 0 0 0
0 0 0 0 0 0 0 0 0 0 0 0 0 0 0 0 0 0 0 0 0 0 0 0 0 0 0 0 0 0 0 0 0 0 0 0 0 0 0 0 0 0 0 0 0
0 0 0 0 0 0 0 0 0 0 0 0 0 0 0 0 0 0 0 0 0 0 0 0 0 0 0 0 0 0 0 0 0 0 0 0 0 0 0 0 0 0 0 0 0
0 0 0 0 0 0 0 0 0 0 0 0 0 0 0 0 0 0 0 0 0 0 0 0 0 0 0 0 0 0 0 0 0 0 0 0 0 0 0 0 0 0 0 0 0
0 0 0 0 0 0 0 0 0 0 0 0 0 0 0 0 0 0 0 0 0 0 0 0 0 0 0 0 0 0 0 0 0 0 0 0 0 0 0 0 0 0 0 0 0
0 0 0 0 0 0 0 0 0 0 0 0 0 0 0 0 0 0 0 0 0 0 0 0 0 0 0 0 0 0 0 0 0 0 0 0 0 0 0 0 0 0 0 0 0
0 0 0 0 0 0 0 0 0 0 0 0 0 0 0 0 0 0 0 0 0 0 0 0 0 0 0 0 0 0 0 0 0 0 0 0 0 0 0 0 0 0 0 0 0
0 0 0 0 0 0 0 0 0 0 0 0 0 0 0 0 0 0 0 0 0 0 0 0 0 0 0 0 0 0 0 0 0 0 0 0 0 0 0 0 0 0 0 0 0
0 0 0 0 0 0 0 0 0 0 0 0 0 0 0 0 0 0 0 0 0 0 0 0 0 0 0 0 0 0 0 0 0 0 0 0 0 0 0 0 0 0 0 0 0
0 0 0 0 0 0 0 0 0 0 0 0 0 0 0 0 0 0 0 0 0 0 0 0 0 0 0 0 0 0 0 0 0 0 0 0 0 0 0 0 0 0 0 0 0
0 0 0 0 0 0 0 0 0 0 0 0 0 0 0 0 0 0 0 0 0 0 0 0 0 0 0 0 0 0 0 0 0 0 0 0 0 0 0 0 0 0 0 0 0
0 0 0 0 0 0 0 0 0 0 0 0 0 0 0 0 0 0 0 0 0 0 0 0 0 0 0 0 0 0 0 0 0 0 0 0 0 0 0 0 0 0 0 0 0
0 0 0 0 0 0 0 0 0 0 0 0 0 0 0 0 0 0 0 0 0 0 0 0 0 0 0 0 0 0 0 2 0 0 0 0 0 0 0 0 0 0 0 0 0
0 0 0 0 0 0 0 0 0 0 0 0 0 0 0 0 0 0 0 0 0 0 0 0 0 0 0 0 0 0 0 0 0 0 0 0 0 0 0 0 0 0 0 0 0
0 0 0 0 0 0 0 0 0 0 0 0 0 0 0 0 0 0 0 0 0 0 0 0 0 0 0 0 0 0 0 0 0 0 0 0 0 0 0 0 0 0 0 0 0
0 0 0 0 0 0 0 0 0 0 0 0 0 0 0 0 0 0 0 0 0 0 0 0 0 0 0 0 0 0 0 0 0 0 0 0 0 0 0 0 0 0 0 0 0
0 0 0 0 0 0 0 0 0 0 0 0 0 0 0 0 0 0 0 0 0 0 0 0 0 0 0 0 0 0 0 0 0 0 0 0 0 0 0 0 0 0 0 0 0
0 0 0 0 0 0 0 0 0 0 0 0 0 0 0 0 0 0 0 0 0 0 0 0 0 0 0 0 0 0 0 0 0 0 0 0 0 0 0 0 0 0 0 0 0
0 0 0 0 0 0 0 0 0 0 0 0 0 0 0 0 0 0 0 0 0 0 0 0 0 0 0 0 0 0 0 0 0 0 0 0 0 0 0 0 0 0 0 0 0
0 0 0 0 0 0 0 0 0 0 0 0 0 0 0 0 0 0 0 0 0 0 0 0 0 0 0 0 0 0 0 0 0 0 0 0 0 0 0 0 0 0 0 0 0
0 0 0 0 0 0 2 3 0 0 0 0 0 0 0 0 0 0 0 0 0 0 0 0 0 0 0 0 0 0 0 0 0 0 0 0 0 0 0 0 0 0 0 0 0
0 0 0 0 0 0 0 0 1 0 0 0 0 0 0 0 0 0 0 0 0 0 0 0 0 0 0 0 0 0 0 0 0 0 0 0 0 0 0 0 0 1 0 1 0
CIN
-0 -0 -0 -0 -0 -0 -0 -0 -0 -0 -0 -0 -0 -0 -0 -0 -0 -0 -0 -0 -0 -0 -0 -0 -0 -0 -0 -0 -0 -0 -0 -0 -0 -0 -0 -0 -0 -0 -0 -0 -0 -0 -0 -0 -0
-0 -0 -0 -0 -0 -0 -0 -0 -0 -0 -0 -0 -0 -0 -0 -0 -0 -0 -0 -0 -0 -0 -0 -0 -0 -0 -0 -0 -0 -0 -0 -0 -0 -0 -0 -0 -0 -0 -0 -0 -0 -0 -0 -0 -0
-0 -0 -0 -0 -0 -0 -0 -0 -0 -0 -0 -0 -0 -0 -0 -0 -0 -0 -0 -0 -0 -0 -0 -0 -0 -0 -0 -0 -0 -0 -0 -0 -0 -0 -0 -0 -0 -0 -0 -0 -0 -0 -0 -0 -0
-0 -0 -0 -0 -0 -0 -0 -0 -0 -0 -0 -0 -0 -0 -0 -0 -0 -0 -0 -0 -0 -0 -0 -0 -0 -0 -0 -0 -0 -0 -0 -0 -0 -0 -0 -0 -0 -0 -0 -0 -0 -0 -0 -0 -0
-0 -0 -0 -0 -0 -0 -0 -0 -0 -0 -0 -0 -0 -0 -0 -0 -0 -0 -0 -0 -0 -0 -0 -0 -0 -0 -0 -0 -0 -0 -0 -0 -0 -0 -0 -0 -0 -0 -0 -0 -0 -0 -0 -0 -0
-0 -0 -0 -0 -0 -0 -0 -0 -0 -0 -0 -0 -0 -0 -0 -0 -0 -0 -0 -0 -0 -0 -0 -0 -0 -0 -0 -0 -0 -0 -0 -0 -0 -0 -0 -0 -0 -0 -0 -0 -0 -0 -0 -0 -0
-0 -0 -0 -0 -0 -0 -0 -0 -0 -0 -0 -0 -0 -0 -0 -0 -0 -0 -0 -0 -0 -0 -0 -0 -0 -0 -0 -0 -0 -0 -0 -0 -0 -0 -0 -0 -0 -0 -0 -0 -0 -0 -0 -0 -0
-0 -0 -0 -0 -0 -0 -0 -0 -0 -0 -0 -0 -0 -0 -0 -0 -0 -0 -0 -0 -0 -0 -0 -0 -0 -0 -0 -0 -0 -0 -0 -0 -0 -0 -0 -0 -0 -0 -0 -0 -0 -0 -0 -0 -0
-0 -0 -0 -0 -0 -0 -0 -0 -0 -0 -0 -0 -0 -0 -0 -0 -0 -0 -0 -0 -0 -0 -0 -0 -0 -0 -0 -0 -0 -0 -0 -0 -0 -0 -0 -0 -0 -0 -0 -0 -0 -0 -0 -0 -0
-0 -0 -0 -0 -0 -0 -0 -0 -0 -0 -0 -0 -0 -0 -0 -0 -0 -0 -0 -0 -0 -0 -0 -0 -0 -0 -0 -0 -0 -0 -0 -0 -0 -0 -0 -0 -0 -0 -0 -0 -0 -0 -0 -0 -0
-0 -0 -0 -0 -0 -0 -0 -0 -0 -0 -0 -0 -0 -0 -0 -0 -0 -0 -0 -0 -0 -0 -0 -0 -0 -0 -0 -0 -0 -0 -0 -0 -0 -0 -0 -0 -0 -0 -0 -0 -0 -0 -0 -0 -0
-0 -0 -0 -0 -0 -0 -0 -0 -0 -0 -0 -0 -0 -0 -0 -0 -0 -0 -0 -0 -0 -0 -0 -0 -0 -0 -0 -0 -0 -0 -0 -0 -0 -0 -0 -0 -0 -0 -0 -0 -0 -0 -0 -0 -0
-0 -0 -0 -0 -0 -0 -0 -0 -0 -0 -0 -0 -0 -0 -0 -0 -0 -0 -0 -0 -0 -0 -0 -0 -0 -0 -0 -0 -0 -0 -0 -0 -0 -0 -0 -0 -0 -0 -0 -0 -0 -0 -0 -0 -0
-0 -0 -0 -0 -0 -0 -0 -0 -0 -0 -0 -0 -0 -0 -0 -0 -0 -0 -0 -0 -0 -0 -0 -0 -0 -0 -0 -0 -0 -0 -0 -0 -0 -0 -0 -0 -0 -0 -0 -0 -0 -0 -0 -0 -0
-0 -0 -0 -0 -0 -0 -0 -0 -0 -0 -0 -0 -0 -0 -0 -0 -0 -0 -0 -0 -0 -0 -0 -0 -0 -0 -0 -0 -0 -0 -0 -0 -0 -0 -0 -0 -0 -0 -0 -0 -0 -0 -0 -0 -0
-0 -0 -0 -0 -0 -0 -0 -0 -0 -0 -0 -0 -0 -0 -0 -0 -0 -0 -0 -0 -0 -0 -0 -0 -0 -0 -0 -0 -0 -0 -0 -0 -0 -0 -0 -0 -0 -0 -0 -0 -0 -0 -0 -0 -0
-0 -0 -0 -0 -0 -0 -0 -0 -0 -0 -0 -0 -0 -0 -0 -0 -0 -0 -0 -0 -0 -0 -0 -0 -0 -0 -0 -0 -0 -0 -0 -0 -0 -0 -0 -0 -0 -0 -0 -0 -0 -0 -0 -0 -0
-0 -0 -0 -0 -0 -0 -0 -0 -0 -0 -0 -0 -0 -0 -0 -0 -0 -0 -0 -0 -0 -0 -0 -0 -0 -0 -0 -0 -0 -0 -0 -2 -0 -0 -0 -0 -0 -0 -0 -0 -0 -0 -0 -0 -0
-0 -0 -0 -0 -0 -0 -0 -0 -0 -0 -0 -0 -0 -0 -0 -0 -0 -0 -0 -0 -0 -0 -0 -0 -0 -0 -0 -0 -0 -0 -0 -0 -0 -0 -0 -0 -0 -0 -0 -0 -0 -0 -0 -0 -0
-0 -0 -0 -0 -0 -0 -0 -0 -0 -0 -0 -0 -0 -0 -0 -0 -0 -0 -0 -0 -0 -0 -0 -0 -0 -0 -0 -0 -0 -0 -0 -0 -0 -0 -0 -0 -0 -0 -0 -0 -0 -0 -0 -0 -0
-0 -0 -0 -0 -0 -0 -0 -0 -0 -0 -0 -0 -0 -0 -0 -0 -0 -0 -0 -0 -0 -0 -0 -0 -0 -0 -0 -0 -0 -0 -0 -0 -0 -0 -0 -0 -0 -0 -0 -0 -0 -0 -0 -0 -0
-0 -0 -0 -0 -0 -0 -0 -0 -0 -0 -0 -0 -0 -0 -0 -0 -0 -0 -0 -0 -0 -0 -0 -0 -0 -0 -0 -0 -0 -0 -0 -0 -0 -0 -0 -0 -0 -0 -0 -0 -0 -0 -0 -0 -0
-0 -0 -0 -0 -0 -0 -0 -0 -0 -0 -0 -0 -0 -0 -0 -0 -0 -0 -0 -0 -0 -0 -0 -0 -0 -0 -0 -0 -0 -0 -0 -0 -0 -0 -0 -0 -0 -0 -0 -0 -0 -0 -0 -0 -0
-0 -0 -0 -0 -0 -0 -0 -0 -0 -0 -0 -0 -0 -0 -0 -0 -0 -0 -0 -0 -0 -0 -0 -0 -0 -0 -0 -0 -0 -0 -0 -0 -0 -0 -0 -0 -0 -0 -0 -0 -0 -0 -0 -0 -0
-0 -0 -0 -0 -0 -0 -0 -0 -0 -0 -0 -0 -0 -0 -0 -0 -0 -0 -0 -0 -0 -0 -0 -0 -0 -0 -0 -0 -0 -0 -0 -0 -0 -0 -0 -0 -0 -0 -0 -0 -0 -0 -0 -0 -0
-0 -0 -0 -0 -0 -0 -0 -0 -0 -0 -0 -0 -0 -0 -0 -0 -0 -0 -0 -0 -0 -0 -0 -0 -0 -0 -0 -0 -0 -0 -0 -0 -0 -0 -0 -0 -0 -0 -0 -0 -0 -0 -0 -0 -0
-0 -0 -0 -0 -0 -0 -0 -0 -0 -0 -0 -0 -0 -0 -0 -0 -0 -0 -0 -0 -0 -0 -0 -0 -0 -0 -0 -0 -0 -0 -0 -0 -0 -0 -0 -0 -0 -0 -0 -0 -0 -1 -0 -0 -0
Wind_Speed
24 25 27 29 31 33 36 40 42 42 41 38 35 34 35 32 23 22 24 23 26 29 25 24 23 27 20 18 18 18 22 23 22 23 21 20 21 20 19 16 16 13 12 14 19
26 28 30 31 33 36 39 42 43 44 42 38 35 35 36 29 22 26 21 25 26 28 24 24 22 23 20 18 18 20 21 20 18 20 21 22 22 23 22 20 17 16 12 12 18
28 30 32 34 36 38 41 43 44 44 42 39 35 36 34 25 23 24 24 28 27 25 22 19 20 21 20 19 19 19 20 19 19 19 21 23 24 22 24 23 21 23 21 22 19
30 32 34 36 38 40 42 43 44 44 40 37 34 33 29 24 27 22 25 27 27 25 23 23 23 23 22 21 20 20 17 19 21 23 26 27 26 24 22 21 22 22 21 23 21
31 33 35 38 40 41 43 44 44 42 37 36 37 31 26 27 24 23 25 28 26 25 25 24 25 25 25 24 24 20 23 24 21 24 26 27 25 24 26 23 19 27 23 25 27
32 34 37 39 41 43 44 45 43 40 35 36 36 29 27 26 21 22 27 28 26 26 26 25 24 24 23 24 25 25 27 26 26 27 30 31 31 29 29 25 30 27 33 33 33
33 35 37 40 42 44 45 45 41 38 33 33 32 26 28 23 19 22 26 25 25 26 27 24 24 25 26 28 26 29 31 32 28 35 35 33 31 31 29 34 33 37 34 35 36
33 36 38 40 43 45 45 44 40 35 32 32 27 25 24 17 18 22 25 23 26 25 26 23 23 24 24 27 30 32 32 41 34 35 33 38 39 34 34 45 43 42 42 44 42
33 36 39 42 44 44 44 43 38 33 31 30 26 26 22 17 20 22 23 26 27 28 27 24 25 26 26 33 34 33 41 44 45 37 36 38 41 38 41 42 45 49 50 49 51
33 36 39 42 44 43 44 39 33 29 33 28 25 27 22 21 20 22 24 26 28 31 28 29 29 31 31 35 41 41 43 40 45 41 44 44 44 43 45 50 54 54 51 52 49
33 36 40 42 41 40 40 35 40 34 41 37 32 24 21 23 16 24 27 28 32 34 36 32 36 34 30 32 34 35 39 44 44 43 43 47 50 47 49 54 57 51 53 49 41
34 37 40 40 37 34 33 36 34 32 45 31 24 20 18 20 24 26 31 33 38 40 33 34 34 29 31 32 36 36 43 41 46 44 50 49 52 51 49 53 52 52 48 45 46
34 37 39 39 31 29 32 33 30 28 40 31 23 22 22 22 26 30 32 33 36 35 33 39 33 32 30 37 39 40 38 43 46 56 54 45 55 58 54 53 51 41 41 45 47
34 36 37 37 26 30 32 31 29 27 40 33 25 24 23 23 26 25 29 34 33 35 38 34 31 33 38 41 40 42 33 42 47 53 62 54 67 61 56 54 52 42 46 45 47
33 34 33 29 28 32 30 32 26 28 47 28 27 22 26 29 32 31 29 31 33 37 34 37 38 39 41 38 34 38 41 46 51 59 56 57 53 54 56 55 48 49 50 44 51
32 32 32 25 26 25 30 27 29 39 41 32 29 33 35 34 34 35 34 28 29 35 34 33 33 34 31 33 35 38 49 57 49 48 58 51 55 63 61 53 51 50 51 53 53
32 30 27 24 29 28 26 30 40 39 31 35 39 38 39 40 37 35 35 36 40 46 42 43 35 31 32 41 40 51 49 60 59 59 63 54 67 62 45 43 48 55 52 55 47
31 28 23 23 25 26 26 34 41 34 37 38 40 42 42 37 35 34 33 39 36 34 42 47 51 35 37 43 48 50 44 49 63 69 74 62 57 52 51 53 57 56 62 61 52
30 26 25 23 24 23 28 37 38 37 35 41 43 46 41 33 33 34 34 36 31 33 40 47 45 36 41 38 44 43 52 42 49 51 56 55 59 55 53 54 59 57 59 55 62
29 28 27 25 23 24 31 38 36 33 35 38 43 34 40 36 35 34 35 31 31 31 30 36 53 38 37 42 33 48 42 51 49 60 65 66 74 63 66 63 54 63 60 63 58
28 33 26 23 20 27 36 38 38 33 33 36 38 36 35 36 34 35 34 32 30 30 31 36 39 46 47 47 51 47 42 43 47 49 63 70 69 56 58 53 65 59 60 56 48
28 38 24 19 31 32 37 37 35 35 33 33 31 30 33 30 35 34 33 31 25 30 38 33 39 50 53 41 34 31 42 46 51 59 57 59 69 47 51 59 59 57 56 51 48
33 35 26 24 42 40 38 39 37 38 35 31 29 27 27 30 36 30 30 24 25 30 33 34 40 55 52 38 33 48 46 46 47 45 55 63 65 51 57 57 56 56 53 49 42
32 42 33 31 35 39 40 43 41 33 31 28 29 27 29 33 29 33 31 26 28 29 31 30 36 42 52 51 48 53 53 49 47 53 59 60 70 63 59 57 58 57 50 41 38
32 41 35 41 40 37 36 39 40 36 30 28 32 29 29 34 33 33 31 30 28 30 27 30 44 43 44 43 43 46 47 48 48 47 54 62 65 62 57 58 59 55 43 44 50
36 38 34 40 37 36 37 40 37 34 31 35 36 30 27 32 32 34 30 31 33 27 30 29 43 46 51 42 42 49 45 42 44 46 51 57 62 54 57 57 60 53 68 56 50
33 33 36 38 40 42 43 39 35 30 34 31 29 28 31 30 27 26 26 28 29 30 33 34 38 43 50 46 52 48 38 49 48 44 48 63 60 57 59 63 60 53 70 49 46
Wind_Direction
338 335 334 332 331 332 336 342 353 2 5 9 12 12 6 8 23 26 5 3 353 336 354 351 359 358 23 31 31 34 20 12 12 10 8 9 5 10 7 2 9 13 360 1 8
336 335 334 332 332 334 337 343 350 357 2 7 10 9 5 12 29 11 18 1 351 347 1 7 12 11 17 22 25 20 14 11 10 4 357 356 357 356 358 352 352 355 352 351 358
336 335 335 333 332 334 337 344 352 357 2 6 7 4 4 18 17 9 9 349 349 356 12 21 17 13 15 19 18 15 5 5 356 353 353 352 349 353 351 347 344 344 350 356 354
336 337 336 334 332 332 337 346 350 355 2 6 8 6 7 16 7 15 6 0 351 359 9 11 8 6 8 10 9 2 3 359 354 352 346 343 345 343 341 328 336 339 340 347 345
336 337 337 336 333 331 333 345 349 356 3 6 6 10 13 4 10 10 2 352 358 360 3 4 3 1 358 356 355 354 353 351 344 337 335 337 334 335 334 332 343 342 340 337 337
335 336 336 336 334 333 331 337 351 357 1 3 3 11 15 1 11 8 357 354 360 5 3 3 1 359 354 353 351 349 344 341 344 346 345 340 339 344 345 347 345 347 337 336 335
335 335 335 336 337 334 332 340 353 356 2 3 5 14 11 15 23 12 1 2 3 4 360 2 360 355 352 349 351 345 343 347 351 345 342 344 339 339 344 338 338 333 337 337 336
335 335 335 336 336 334 337 345 353 358 1 4 9 11 6 33 31 18 8 10 3 5 3 6 3 356 354 350 346 345 345 342 346 345 345 344 326 339 340 336 334 336 337 336 336
336 335 335 334 333 336 341 345 352 358 4 5 9 3 358 20 12 11 12 358 358 358 359 3 360 356 353 346 344 346 338 337 339 345 341 338 324 331 335 335 332 335 335 336 336
335 336 335 334 335 338 342 348 355 2 2 5 7 356 359 353 0 4 6 358 356 351 351 354 352 344 344 346 339 337 336 335 334 340 337 332 324 326 331 332 331 333 335 336 337
334 335 335 336 339 344 350 356 352 352 354 352 350 353 356 357 9 357 358 352 351 348 342 348 344 341 344 343 341 337 335 331 332 336 334 332 324 322 329 330 331 336 336 336 343
333 333 334 337 345 353 359 356 357 353 343 356 5 5 3 1 345 349 350 346 343 338 344 345 344 346 343 342 339 336 332 330 328 333 332 330 319 321 327 330 333 336 338 341 338
331 333 334 337 350 359 359 357 357 357 344 348 1 4 359 354 341 341 349 346 341 340 341 338 335 339 340 337 335 333 330 332 331 330 329 333 323 321 326 330 333 341 343 341 338
330 331 334 339 352 353 350 355 355 356 336 340 346 353 356 352 341 352 350 346 340 336 337 338 343 341 336 334 334 333 341 333 331 331 327 331 321 319 331 333 333 340 341 339 338
328 329 335 346 344 343 348 349 355 351 326 342 343 358 347 339 336 341 352 344 336 334 337 334 334 336 334 337 341 334 336 332 328 324 325 327 324 331 335 335 337 336 337 339 337
325 328 331 342 345 350 349 351 346 333 324 333 340 337 331 332 331 332 338 348 343 337 335 332 337 337 342 345 346 341 333 327 330 329 328 333 332 327 332 337 338 339 339 338 334
322 325 330 337 334 344 349 343 329 324 336 330 328 330 327 324 326 331 332 333 333 331 331 332 336 343 346 338 339 337 336 331 331 331 325 331 327 326 340 342 339 337 335 334 333
320 322 328 332 338 343 342 332 320 325 324 329 327 325 322 327 327 329 330 328 334 335 330 330 329 339 344 340 335 337 339 333 327 326 321 327 327 331 337 335 333 333 332 330 330
317 319 321 328 335 338 329 319 319 324 328 326 325 319 321 325 327 328 329 329 336 338 330 328 326 334 336 342 339 338 333 333 325 323 323 328 323 325 334 337 334 337 337 336 331
312 314 314 324 329 326 315 311 316 322 324 324 318 321 318 322 323 326 327 333 332 339 338 332 324 335 340 340 344 337 341 336 337 330 326 325 324 330 336 335 338 335 334 331 331
309 308 315 326 326 314 306 311 315 319 321 320 317 314 315 318 319 320 322 329 332 334 340 334 327 325 331 334 331 336 338 341 334 328 325 327 328 337 333 335 334 332 333 334 334
303 300 315 322 307 309 305 312 318 317 320 316 316 312 313 317 317 317 318 323 334 334 329 334 328 323 326 332 340 346 339 338 332 328 325 321 319 333 334 332 331 332 333 335 333
296 297 308 307 298 298 306 308 312 314 314 316 312 314 319 314 315 316 320 327 332 331 330 333 327 325 327 335 338 332 334 333 330 327 326 325 325 332 328 331 333 332 332 331 330
296 296 299 298 299 300 301 304 305 312 309 310 310 312 312 309 314 315 316 320 325 327 327 328 324 322 321 323 326 326 330 331 331 328 327 325 324 331 332 333 334 332 329 307 310
286 290 293 296 294 295 300 304 304 303 305 308 308 303 304 306 310 310 314 319 324 326 326 327 322 322 322 324 325 325 327 329 329 327 326 327 328 330 332 332 332 331 311 307 300
279 286 293 293 297 292 294 295 294 298 300 301 299 302 301 303 307 311 316 319 320 325 326 328 323 325 323 327 329 328 328 329 331 333 331 329 328 332 332 330 332 330 303 301 302
279 286 286 290 291 291 291 292 293 292 300 296 297 298 300 304 312 317 316 318 319 320 321 323 325 328 325 331 331 333 340 335 334 337 335 333 332 333 333 331 330 309 303 305 320